EW4498 Weather Reports


time (UTC)temp
C
wind
direction
speed
KPH
gust
KPH
rain 1hr
cm
rain 24hr
cm
rain mn
cm
humidity
%
barometer
mb
20260905103048 16 347 12.9 25.7 0.00 0.86 0.05 74 1007.5
20260905101551 16 232 8.0 24.1 0.00 0.86 0.05 76 1007.3
20260905100153 16 279 9.7 19.3 0.00 0.86 0.05 78 1007.3
20260905094600 15 281 9.7 20.9 0.00 0.99 0.05 81 1007.3
20260905093018 14 325 4.8 16.1 0.00 0.99 0.05 84 1007.2
20260905091530 13 225 6.4 16.1 0.00 0.99 0.05 83 1007.1
20260905090028 15 223 8.0 24.1 0.03 0.99 0.05 81 1007.1
20260905084530 15 252 8.0 16.1 0.05 0.99 0.05 82 1006.9
20260905083025 14 230 6.4 22.5 0.05 0.99 0.05 85 1006.8
20260905081524 14 236 4.8 14.5 0.05 0.99 0.05 85 1006.8
20260905080022 15 281 6.4 27.4 0.05 0.99 0.05 79 1006.6
20260905074521 16 258 9.7 22.5 0.00 0.99 0.00 76 1006.4
20260905073022 16 179 9.7 25.7 0.00 0.99 0.00 79 1006.2
20260905071528 16 237 11.3 22.5 0.00 0.99 0.00 79 1006.2
20260905070009 15 213 6.4 16.1 0.00 0.99 0.00 81 1006.1
20260905064506 15 258 6.4 25.7 0.00 0.99 0.00 81 1005.8
20260905063006 15 223 8.0 16.1 0.00 0.99 0.00 81 1005.9
20260905061503 15 240 6.4 19.3 0.00 0.99 0.00 82 1005.8
20260905060100 15 251 6.4 17.7 0.00 0.99 0.00 83 1005.7
20260905060001 15 273 6.4 17.7 0.00 0.99 0.00 83 1005.7
20260905054558 14 236 6.4 14.5 0.00 0.99 0.00 84 1005.6
20260905053136 14 263 4.8 14.5 0.00 0.99 0.00 84 1005.6
20260905051554 14 236 11.3 22.5 0.00 0.99 0.00 84 1005.5
20260905050050 14 250 4.8 17.7 0.00 0.99 0.00 86 1005.3
20260905044549 13 238 6.4 12.9 0.00 0.99 0.00 87 1005.1
20260905043045 13 219 6.4 24.1 0.00 0.99 0.00 86 1005.0
20260905041545 13 232 6.4 14.5 0.00 0.99 0.00 85 1004.8
20260905040040 13 205 6.4 19.3 0.00 0.99 0.00 85 1004.8
20260905034538 13 213 6.4 19.3 0.00 0.99 0.00 84 1004.7
20260905033049 13 238 4.8 16.1 0.00 0.99 0.00 84 1004.5
20260905031535 13 270 4.8 14.5 0.00 0.99 0.00 84 1004.5
20260905030030 13 251 4.8 17.7 0.00 0.99 0.00 85 1004.3
20260905024529 13 255 1.6 9.7 0.00 0.99 0.00 85 1004.2
20260905023027 13 251 3.2 14.5 0.00 0.99 0.00 84 1004.1
20260905021526 13 219 3.2 17.7 0.00 0.99 0.00 84 1004.0
20260905020026 13 296 4.8 11.3 0.00 0.99 0.00 85 1003.8
20260905014518 13 225 4.8 16.1 0.00 0.99 0.00 85 1003.5
20260905013016 13 325 4.8 19.3 0.00 0.99 0.00 84 1003.3
20260905011515 14 306 4.8 16.1 0.00 0.99 0.00 84 1003.0
20260905010013 14 240 4.8 19.3 0.00 0.99 0.00 84 1002.9
20260905004510 14 320 4.8 14.5 0.00 0.99 0.00 85 1002.8
20260905003008 14 212 8.0 20.9 0.00 0.99 0.00 84 1002.6
20260905001505 14 219 6.4 19.3 0.00 0.99 0.00 84 1002.5
20260905000003 14 239 8.0 22.5 0.00 0.99 0.00 84 1002.4
20260904234601 14 231 6.4 16.1 0.00 0.99 0.00 85 1002.5
20260904233059 14 246 4.8 22.5 0.00 0.99 0.00 85 1002.3
20260904231557 14 223 4.8 22.5 0.00 0.99 0.00 85 1002.2
20260904230055 14 246 4.8 19.3 0.00 0.99 0.00 86 1002.3
20260904224604 14 229 4.8 19.3 0.00 0.99 0.00 86 1002.1
20260904223051 14 238 4.8 20.9 0.00 0.99 0.00 86 1002.1
20260904221551 14 277 8.0 17.7 0.00 0.99 0.00 86 1002.0
20260904220046 14 217 6.4 24.1 0.00 0.99 0.00 86 1002.1
20260904214549 13 284 4.8 19.3 0.00 0.99 0.99 86 1001.8
20260904213043 13 281 3.2 19.3 0.00 0.99 0.99 86 1001.8
20260904211543 13 247 4.8 17.7 0.00 0.99 0.99 86 1001.7
20260904210048 13 265 6.4 17.7 0.00 0.99 0.99 87 1001.6
20260904204538 13 219 6.4 17.7 0.00 0.99 0.99 86 1001.5
20260904203036 14 306 4.8 17.7 0.00 0.99 0.99 87 1001.3
20260904201542 14 213 8.0 25.7 0.00 0.99 0.99 87 1001.0
20260904200033 14 281 9.7 19.3 0.00 0.99 0.99 88 1000.9
20260904194529 14 255 6.4 24.1 0.00 0.99 0.99 87 1000.7
20260904193032 15 194 4.8 25.7 0.00 0.99 0.99 88 1000.4
20260904191529 15 237 4.8 22.5 0.00 0.99 0.99 89 1000.2
20260904184524 15 205 4.8 16.1 0.03 0.99 0.99 91 999.7
20260904183025 15 232 3.2 12.9 0.15 0.99 0.99 91 999.5
20260904181523 15 240 3.2 9.7 0.20 0.99 0.99 91 999.5
20260904180022 15 249 0.0 0.0 0.20 0.99 0.99 91 999.4
20260904174527 15 262 0.0 4.8 0.18 0.99 0.99 90 999.3
20260904173021 15 311 3.2 11.3 0.03 0.81 0.81 89 999.4
20260904171521 15 248 3.2 11.3 0.00 0.79 0.79 88 999.1
20260904170019 16 254 1.6 8.0 0.00 0.79 0.79 88 999.1
20260904164519 16 258 0.0 6.4 0.00 0.79 0.79 87 999.1
20260904163027 16 244 1.6 6.4 0.00 0.79 0.79 87 999.2
20260904161518 16 236 1.6 6.4 0.00 0.79 0.79 85 999.2
20260904160016 16 252 1.6 11.3 0.00 0.79 0.79 84 999.3
20260904154516 16 238 6.4 11.3 0.00 0.79 0.79 83 999.4
20260904153020 16 229 4.8 12.9 0.00 0.79 0.79 85 999.4
20260904151512 16 219 1.6 12.9 0.03 0.79 0.79 87 999.5
20260904150025 15 235 3.2 11.3 0.03 0.79 0.79 87 999.6
20260904144511 15 228 0.0 6.4 0.05 0.79 0.79 89 999.5
20260904143013 15 252 0.0 9.7 0.13 0.79 0.79 90 999.7
20260904141509 15 292 1.6 8.0 0.13 0.79 0.79 90 999.9
20260904140008 16 289 4.8 12.9 0.15 0.79 0.79 91 999.8
20260904134556 16 217 4.8 8.0 0.13 0.79 0.71 92 999.8
20260904133143 16 237 3.2 12.9 0.08 0.71 0.71 92 999.9
20260904131551 16 237 4.8 12.9 0.05 0.71 0.66 92 999.8
20260904130144 16 227 3.2 11.3 0.05 0.69 0.64 92 999.5
20260904124611 16 217 4.8 12.9 0.08 0.69 0.61 92 999.6
20260904123005 16 211 4.8 12.9 0.10 0.69 0.61 92 999.7
20260904121550 16 209 4.8 11.3 0.13 0.66 0.61 92 1000.0
20260904120015 16 194 4.8 9.7 0.15 0.64 0.58 92 1000.3
20260904114558 16 215 6.4 12.9 0.13 0.69 0.53 91 1000.5
20260904113033 16 216 8.0 14.5 0.10 0.64 0.51 91 1000.8
20260904111638 16 195 6.4 17.7 0.13 0.61 0.48 91 1000.6
20260904110059 16 210 3.2 8.0 0.23 0.58 0.43 92 1000.8
20260904104502 16 249 3.2 9.7 0.30 0.58 0.43 91 1001.1